Wind_Speed
9 9 10 10 10 11 10 10 11 11 11 10 10 10 11 10 10 10 10 10 10 9 9 9 9 8 8 7 7 7 8 8 8 7 7 8 8 8 8 8 8 8 8
10 9 10 11 11 12 11 11 11 12 11 10 10 10 11 11 10 11 10 9 9 9 9 9 8 8 7 7 7 7 7 8 8 8 8 9 9 9 9 9 9 9 9
11 10 11 11 11 12 12 12 12 12 12 11 11 11 11 11 11 11 10 9 9 9 9 8 8 7 7 7 7 7 7 8 9 9 9 9 9 9 9 9 9 9 9
12 12 12 12 12 12 12 12 12 12 13 12 12 12 12 11 11 10 10 9 9 9 9 8 7 7 8 7 7 8 8 8 8 8 9 9 9 9 9 9 9 9 9
13 13 13 13 13 13 12 13 12 12 13 13 12 12 12 12 12 11 10 10 10 9 8 8 7 8 8 8 8 8 8 8 8 8 8 8 9 9 9 9 9 10 10
14 14 14 14 13 13 13 13 13 13 13 13 13 12 12 12 11 11 10 10 10 9 8 9 9 8 8 8 8 8 8 8 8 8 8 9 9 9 9 10 10 11 11
15 14 14 14 14 14 14 13 13 13 13 13 12 12 12 12 11 11 11 10 10 10 9 9 9 9 9 9 9 9 9 9 9 9 9 9 10 10 10 11 11 11 11
16 15 15 15 15 14 14 14 14 13 13 13 13 13 13 12 12 12 11 11 11 10 10 10 10 10 10 10 11 11 10 10 10 10 10 10 10 10 11 11 11 11 12
16 16 16 16 16 15 14 14 14 14 14 14 14 14 13 13 13 12 13 12 11 12 11 12 12 11 11 12 12 12 12 12 11 11 10 11 10 11 11 12 12 13 12
17 17 17 16 16 15 15 15 15 15 15 15 15 15 15 14 14 14 13 13 12 13 13 13 13 12 13 13 13 13 13 12 12 12 12 12 12 12 12 13 13 13 13
18 17 17 17 16 15 15 15 15 15 15 15 15 15 16 16 15 14 14 14 14 14 14 14 14 14 13 14 14 14 13 13 13 13 13 13 13 13 13 13 13 13 13
18 18 18 18 17 17 17 16 16 16 15 15 15 16 16 16 16 16 16 16 15 15 15 15 15 15 15 15 15 14 14 15 15 15 15 15 14 14 14 13 13 13 13
18 19 19 19 19 18 18 18 17 17 17 17 16 16 17 17 17 17 17 17 16 16 16 16 16 16 16 16 16 16 16 16 16 16 16 16 16 15 15 14 14 14 14
19 19 19 20 20 20 19 19 18 18 18 18 18 18 18 18 18 17 18 18 18 18 18 17 17 17 17 17 17 17 17 17 17 17 17 17 17 16 16 16 15 16 16
20 21 21 21 21 21 20 20 20 20 19 19 19 19 18 19 19 18 19 19 19 19 19 19 19 19 19 18 18 18 18 18 18 18 18 18 18 18 17 17 17 17 17
22 22 23 23 22 22 21 21 21 21 20 20 20 20 19 19 19 19 19 19 19 20 20 20 20 20 20 19 19 19 18 19 19 19 19 19 18 18 18 18 19 19 18
23 23 23 24 24 23 23 22 22 23 22 22 22 22 21 20 20 20 20 20 20 20 20 20 20 20 20 19 19 19 19 19 19 19 19 19 19 19 19 19 18 19 19
25 25 25 25 24 24 24 24 24 24 24 23 23 23 22 22 21 21 20 20 20 20 20 20 20 20 20 20 20 20 20 20 20 20 20 20 20 20 20 20 20 20 20
27 27 27 27 26 25 25 25 25 25 25 24 24 24 24 23 22 21 21 20 20 20 20 20 20 20 20 21 21 20 20 20 20 20 21 21 21 21 21 21 21 21 21
28 28 28 28 27 27 27 26 25 25 25 25 24 24 24 23 22 21 21 21 20 20 21 21 21 20 20 19 19 20 19 20 20 20 20 21 21 21 21 21 21 22 22
29 29 29 29 29 28 28 27 26 25 25 26 25 24 24 23 22 22 22 21 21 21 21 21 21 21 20 20 20 20 21 21 21 20 20 21 21 22 22 22 22 23 23
29 30 30 30 29 29 28 27 27 26 26 26 25 24 24 23 23 22 22 21 21 21 21 21 21 20 20 20 21 21 21 21 21 21 21 21 22 23 23 23 23 24 24
30 30 30 30 29 29 28 28 27 26 26 26 25 25 24 23 23 23 22 22 21 21 21 21 21 21 21 21 21 22 22 22 22 22 23 22 23 24 25 25 25 25 25
31 30 30 30 30 29 28 28 28 27 26 26 25 25 25 24 23 23 23 23 23 22 22 22 22 22 22 22 22 23 23 23 23 24 24 25 25 25 26 26 26 26 26
30 30 30 29 29 29 28 28 28 27 26 26 26 26 25 25 24 24 24 24 24 24 24 24 24 24 23 24 24 24 24 25 25 25 25 26 26 26 26 26 26 26 26
31 30 30 29 29 29 28 28 28 27 26 26 26 26 26 26 25 25 24 25 25 25 25 25 25 25 25 25 25 25 25 25 26 26 26 26 27 27 27 26 26 26 27
Wind_Direction
276 275 279 281 283 284 285 287 287 288 289 290 292 295 298 301 302 300 298 298 299 297 288 287 287 289 283 280 280 276 276 276 276 278 280 280 279 278 278 279 278 278 281
282 278 281 284 286 287 286 285 287 286 287 287 288 292 298 299 302 302 296 295 295 297 301 298 296 295 292 290 285 285 285 283 281 281 282 282 280 279 280 281 280 281 283
281 282 283 284 287 287 285 283 286 285 285 285 284 286 292 297 302 303 297 292 294 295 295 298 298 295 295 294 291 292 289 285 283 282 284 286 286 285 282 281 281 283 286
279 280 283 287 286 286 286 283 284 284 282 281 281 284 287 292 297 298 296 294 297 296 292 296 294 291 290 290 291 292 293 290 291 288 288 287 287 288 286 284 283 284 288
278 279 281 285 286 285 285 283 282 283 281 281 280 281 285 285 287 291 291 290 293 295 290 289 290 288 289 288 288 289 291 290 290 290 290 290 287 286 285 285 284 286 288
275 276 278 280 282 282 282 280 280 279 279 277 279 278 283 283 282 285 286 287 286 284 284 288 287 287 289 287 287 289 287 287 287 286 288 290 288 286 283 283 283 284 287
277 275 274 275 278 280 280 278 276 276 276 276 277 277 279 281 281 282 281 280 281 279 281 285 285 283 285 285 288 291 289 285 284 286 286 284 282 283 282 282 284 285 287
279 277 276 275 276 277 279 278 275 274 274 276 276 276 278 278 278 280 278 276 275 276 278 283 284 280 281 283 286 288 288 286 285 287 286 282 281 279 281 284 288 288 288
277 277 275 275 275 276 276 277 276 273 273 275 274 276 276 275 276 276 276 275 276 277 279 282 285 281 277 280 283 284 284 284 284 285 285 282 281 281 282 285 287 288 288
275 276 276 276 276 275 275 276 278 275 273 274 274 274 273 273 273 274 272 275 276 275 277 279 281 282 281 280 280 282 281 282 283 284 284 283 281 283 286 287 288 286 287
275 274 273 274 275 276 275 276 278 275 274 273 274 273 271 271 272 273 274 275 275 274 276 275 276 279 280 280 279 280 279 280 282 284 283 283 284 283 283 285 286 285 286
274 271 273 274 273 275 276 275 276 275 275 274 274 273 271 270 271 273 275 277 276 275 275 275 275 276 279 280 279 278 279 280 280 281 282 283 283 284 283 283 283 284 284
276 273 273 273 273 273 275 275 274 274 273 273 275 274 272 272 273 273 274 275 276 276 275 277 275 275 279 280 278 275 278 280 280 280 281 282 283 283 283 282 282 283 283
276 275 275 275 275 275 273 272 272 272 272 272 272 274 274 274 273 274 273 275 275 274 273 275 274 275 278 279 278 275 276 279 280 279 280 280 280 280 281 281 280 281 281
274 274 274 274 275 275 274 272 270 268 269 270 271 272 273 275 274 274 273 275 277 276 274 275 274 274 277 277 277 276 276 277 278 278 278 279 279 278 279 280 279 281 281
276 274 273 272 273 274 274 273 271 268 268 270 270 271 272 275 276 276 274 274 276 277 276 275 275 275 275 274 275 275 275 275 276 276 276 278 279 277 278 279 279 280 282
276 274 273 272 272 272 272 271 270 269 269 270 269 270 272 274 275 275 274 273 275 276 277 276 275 276 275 274 274 274 274 274 274 274 274 277 278 278 278 279 281 281 283
275 274 273 273 272 271 271 271 270 269 269 270 269 270 270 272 273 272 272 271 274 274 275 275 275 274 274 275 275 275 274 274 274 274 274 274 275 275 275 277 279 282 284
275 274 273 273 272 272 271 270 269 268 268 268 268 267 268 269 270 270 269 269 272 273 272 272 273 274 275 275 275 275 276 276 275 274 272 271 272 272 273 276 278 281 282
274 273 272 272 272 271 270 269 267 266 266 265 265 266 266 267 267 268 268 268 270 271 272 272 273 274 275 276 278 277 276 278 277 275 274 273 271 271 272 275 278 281 283
272 272 272 271 271 271 270 269 268 266 265 264 264 265 265 265 265 267 268 268 268 270 271 272 273 273 274 275 279 280 279 278 278 276 275 274 273 273 275 277 279 280 282
272 272 272 271 270 269 268 267 267 266 264 264 264 264 265 265 264 266 267 267 268 270 272 272 273 273 275 277 278 280 283 282 278 276 275 274 272 274 275 277 279 280 281
272 272 271 270 268 268 267 266 266 265 263 262 262 263 263 265 265 265 266 266 267 269 270 271 273 274 276 278 280 282 282 282 279 275 274 273 274 274 274 275 277 280 281
272 271 270 269 267 266 265 265 265 264 263 261 261 261 262 264 265 264 265 265 266 269 270 271 272 273 276 278 280 282 282 281 281 278 274 274 275 275 276 276 277 280 281
272 271 269 268 267 266 264 264 265 263 260 260 260 261 262 263 264 265 264 264 266 269 270 271 271 273 274 276 278 279 280 280 280 280 278 276 275 275 275 277 278 280 282
271 270 269 267 266 265 264 263 263 262 259 259 260 262 263 264 265 265 265 265 265 267 270 271 272 274 275 277 279 279 280 281 281 280 278 276 277 277 276 277 278 280 281
Height
5859 5859 5859 5859 5859 5860 5860 5860 5860 5860 5860 5860 5860 5859 5859 5859 5858 5858 5857 5857 5856 5856 5856 5855 5855 5855 5855 5855 5854 5854 5854 5854 5854 5854 5854 5854 5854 5854 5854 5854 5854 5854 5854
5857 5857 5857 5857 5857 5858 5858 5858 5858 5858 5858 5858 5858 5857 5857 5857 5856 5856 5855 5855 5854 5854 5854 5854 5854 5854 5853 5853 5853 5852 5852 5852 5852 5852 5852 5852 5853 5852 5852 5852 5852 5852 5852
5855 5855 5855 5855 5855 5855 5855 5855 5855 5855 5855 5855 5855 5855 5855 5855 5854 5854 5853 5853 5853 5852 5852 5852 5852 5852 5852 5852 5851 5851 5851 5851 5851 5850 5850 5850 5850 5850 5850 5850 5850 5850 5850
5852 5853 5853 5853 5853 5853 5853 5853 5853 5853 5853 5853 5853 5853 5853 5853 5852 5852 5851 5851 5851 5851 5851 5851 5850 5850 5850 5850 5850 5849 5849 5849 5849 5848 5848 5848 5848 5848 5848 5849 5848 5848 5848
5850 5850 5850 5850 5850 5850 5850 5850 5850 5850 5850 5850 5850 5850 5850 5850 5850 5849 5849 5849 5849 5849 5849 5849 5849 5849 5848 5848 5848 5848 5847 5847 5847 5846 5846 5846 5846 5846 5846 5846 5846 5846 5846
5847 5847 5847 5847 5847 5847 5847 5847 5847 5847 5847 5847 5847 5847 5847 5847 5847 5847 5847 5847 5847 5847 5847 5847 5847 5847 5847 5847 5846 5846 5845 5845 5845 5844 5844 5844 5844 5844 5844 5844 5844 5844 5843
5844 5844 5844 5844 5844 5844 5844 5844 5845 5844 5844 5844 5844 5844 5844 5844 5844 5844 5844 5844 5844 5844 5845 5844 5844 5844 5844 5844 5844 5844 5843 5842 5842 5842 5842 5842 5841 5841 5841 5841 5841 5841 5841
5841 5841 5841 5841 5841 5841 5841 5841 5841 5841 5841 5841 5841 5842 5841 5841 5841 5841 5842 5842 5841 5841 5842 5842 5842 5841 5842 5841 5841 5841 5841 5840 5840 5839 5839 5839 5839 5839 5839 5838 5838 5838 5838
5838 5837 5837 5837 5837 5838 5838 5838 5838 5838 5838 5838 5838 5838 5838 5838 5838 5838 5838 5838 5838 5838 5839 5839 5839 5839 5838 5838 5838 5838 5838 5837 5837 5836 5836 5836 5836 5836 5836 5835 5835 5835 5835
5834 5834 5834 5834 5834 5834 5834 5834 5834 5834 5834 5834 5834 5834 5835 5835 5835 5835 5835 5835 5835 5835 5835 5835 5835 5835 5835 5835 5835 5835 5834 5834 5834 5833 5833 5833 5833 5833 5832 5832 5831 5831 5831
5830 5829 5830 5830 5830 5830 5830 5830 5830 5830 5830 5830 5830 5830 5831 5831 5831 5831 5831 5831 5831 5831 5832 5832 5832 5832 5831 5831 5831 5831 5831 5830 5830 5830 5830 5830 5829 5829 5829 5828 5828 5828 5828
5825 5825 5825 5826 5826 5826 5826 5826 5826 5826 5826 5826 5826 5826 5826 5827 5827 5827 5827 5827 5827 5827 5827 5827 5828 5827 5827 5827 5827 5827 5827 5827 5827 5826 5826 5826 5826 5825 5825 5825 5824 5824 5824
5821 5821 5821 5821 5821 5821 5821 5821 5821 5822 5822 5822 5822 5822 5822 5822 5823 5823 5823 5823 5823 5823 5823 5823 5823 5823 5823 5823 5822 5823 5823 5822 5822 5822 5822 5822 5822 5821 5821 5821 5821 5820 5820
5816 5816 5816 5816 5816 5816 5816 5816 5817 5817 5817 5817 5817 5818 5818 5818 5818 5818 5818 5818 5818 5818 5818 5818 5818 5818 5818 5818 5817 5817 5818 5818 5818 5818 5817 5817 5817 5817 5817 5817 5816 5816 5816
5811 5811 5811 5811 5811 5811 5811 5811 5811 5811 5812 5812 5812 5813 5813 5813 5813 5813 5813 5813 5813 5813 5813 5813 5813 5813 5813 5812 5812 5812 5812 5813 5812 5812 5812 5812 5812 5812 5812 5812 5811 5811 5811
5805 5805 5805 5805 5805 5805 5805 5805 5805 5806 5806 5806 5806 5807 5807 5807 5807 5807 5807 5807 5807 5807 5807 5807 5807 5807 5807 5807 5806 5806 5806 5807 5807 5807 5807 5807 5807 5807 5806 5806 5806 5806 5806
5799 5799 5798 5798 5798 5798 5799 5799 5799 5799 5800 5800 5800 5800 5801 5801 5801 5801 5801 5801 5801 5801 5801 5801 5801 5801 5801 5801 5800 5800 5800 5801 5801 5801 5801 5801 5801 5801 5801 5800 5800 5800 5800
5792 5792 5791 5791 5791 5791 5792 5792 5792 5793 5793 5793 5794 5794 5794 5795 5795 5795 5795 5795 5795 5795 5796 5796 5795 5795 5795 5795 5794 5794 5794 5794 5794 5794 5794 5795 5795 5795 5795 5795 5794 5794 5794
5785 5784 5784 5784 5784 5784 5784 5784 5785 5785 5786 5786 5787 5787 5788 5788 5788 5788 5789 5789 5789 5789 5789 5790 5789 5789 5789 5789 5788 5788 5788 5788 5788 5788 5788 5788 5788 5788 5788 5788 5788 5788 5787
5777 5777 5776 5776 5776 5776 5776 5776 5777 5778 5778 5779 5780 5780 5780 5781 5782 5782 5782 5783 5783 5783 5783 5783 5783 5783 5783 5783 5782 5782 5782 5782 5782 5781 5781 5781 5781 5781 5781 5781 5781 5781 5780
5769 5768 5768 5768 5768 5768 5768 5768 5769 5770 5771 5771 5772 5773 5773 5774 5775 5776 5776 5776 5777 5777 5777 5777 5777 5777 5777 5777 5776 5776 5775 5775 5775 5775 5775 5774 5774 5774 5774 5774 5774 5774 5773
5760 5760 5759 5759 5759 5760 5760 5761 5761 5762 5763 5763 5765 5766 5766 5767 5768 5769 5769 5769 5770 5770 5771 5771 5771 5771 5771 5770 5770 5769 5769 5768 5768 5768 5768 5767 5767 5767 5767 5767 5767 5766 5766
5751 5751 5751 5751 5751 5751 5752 5752 5753 5754 5755 5756 5757 5758 5759 5760 5761 5762 5762 5763 5764 5764 5764 5765 5765 5765 5765 5764 5763 5763 5762 5761 5761 5760 5760 5760 5760 5760 5760 5759 5759 5759 5758
5742 5742 5742 5742 5742 5743 5743 5744 5745 5746 5747 5748 5750 5751 5752 5753 5754 5755 5755 5756 5757 5757 5758 5758 5758 5758 5758 5757 5757 5756 5755 5754 5754 5753 5753 5752 5752 5752 5752 5751 5751 5751 5750
5733 5733 5733 5733 5734 5735 5735 5736 5736 5737 5739 5740 5742 5743 5744 5746 5746 5747 5748 5749 5750 5750 5750 5751 5751 5751 5751 5750 5749 5748 5748 5747 5746 5745 5745 5745 5744 5744 5744 5743 5743 5742 5742
5724 5724 5724 5725 5725 5726 5727 5728 5728 5729 5731 5732 5734 5735 5736 5738 5739 5739 5740 5741 5742 5742 5743 5743 5743 5743 5743 5742 5741 5741 5740 5739 5738 5738 5737 5737 5736 5736 5735 5735 5734 5734 5733